UB9HDM-13 Weather Reports


Display with metric or nautical units.
time (UTC)temp
F
wind
direction
speed
MPH
gust
MPH
rain 1hr
in
rain 24hr
in
rain mn
in
humidity
%
barometer
mb
20260505170339 52 0.0 0.0 0.00 0.16 0.00 90 999.6
20260505160408 51 0.0 0.0 0.00 0.16 0.00 91 999.6
20260505150326 50 0.0 0.0 0.00 0.16 0.00 92 999.5
20260505110345 51 0.0 0.0 0.00 0.16 0.00 89 999.7
20260505100331 50 0.0 0.0 0.00 0.16 0.00 90 1000.2
20260505090335 50 0.0 0.0 0.04 0.16 0.03 92 1000.8
20260505080336 50 0.0 0.0 0.08 0.12 0.02 91 1001.4
20260505070335 51 0.0 0.0 0.04 0.04 0.01 86 1002.3
20260505060357 59 0.0 0.0 0.00 0.00 0.00 49 1002.4
20260505050355 59 0.0 0.0 0.00 0.00 0.00 47 1003.2
20260505040338 59 0.0 0.0 0.00 0.00 0.00 47 1003.2
20260505030333 57 0.0 0.0 0.00 0.00 0.00 50 1003.4
20260505020341 53 0.0 0.0 0.00 0.00 0.00 55 1003.9
20260505010354 48 0.0 0.0 0.00 0.00 0.00 67 1004.4
20260505000343 37 0.0 0.0 0.00 0.00 0.00 85 1004.6
20260504230341 35 0.0 0.0 0.00 0.04 0.00 87 1004.9
20260504220335 35 0.0 0.0 0.00 0.04 0.00 86 1005.1
20260504210348 37 0.0 0.0 0.00 0.04 0.00 82 1005.5
20260504200346 38 0.0 0.0 0.00 0.04 0.00 81 1005.5
20260504190404 40 0.0 0.0 0.00 0.04 0.00 77 1005.7
20260504180340 41 0.0 0.0 0.00 0.04 0.00 72 1005.8